TimeEST,TemperatureF,Dew PointF,Humidity,Sea Level PressureIn,VisibilityMPH,Wind Direction,Wind SpeedMPH,Gust SpeedMPH,PrecipitationIn,Events,Conditions,WindDirDegrees,DateUTC
12:53 AM,21.0,14.0,74,30.41,10.0,Calm,Calm,-,N/A,,Clear,0,2013-01-15 05:53:00
1:53 AM,19.0,14.0,81,30.42,10.0,Calm,Calm,-,N/A,,Clear,0,2013-01-15 06:53:00
2:53 AM,19.9,15.1,81,30.43,7.0,Calm,Calm,-,N/A,,Clear,0,2013-01-15 07:53:00
3:53 AM,19.9,12.9,74,30.42,8.0,Calm,Calm,-,N/A,,Clear,0,2013-01-15 08:53:00
4:53 AM,19.0,12.9,77,30.41,8.0,WNW,3.5,-,N/A,,Clear,300,2013-01-15 09:53:00
5:53 AM,17.1,12.0,81,30.42,8.0,Calm,Calm,-,N/A,,Clear,0,2013-01-15 10:53:00
7:53 AM,18.0,12.0,78,30.45,7.0,Calm,Calm,-,N/A,,Clear,0,2013-01-15 12:53:00
8:53 AM,19.9,14.0,78,30.45,6.0,Calm,Calm,-,N/A,,Haze,0,2013-01-15 13:53:00
9:53 AM,24.1,17.1,75,30.45,9.0,Calm,Calm,-,N/A,,Clear,0,2013-01-15 14:53:00
10:53 AM,27.0,18.0,69,30.43,10.0,Calm,Calm,-,N/A,,Clear,0,2013-01-15 15:53:00
11:53 AM,28.9,19.0,67,30.43,10.0,SSW,3.5,-,N/A,,Partly Cloudy,200,2013-01-15 16:53:00
12:53 PM,30.0,17.1,59,30.38,10.0,SSW,3.5,-,N/A,,Clear,210,2013-01-15 17:53:00
1:53 PM,30.9,16.0,54,30.37,10.0,Calm,Calm,-,N/A,,Clear,0,2013-01-15 18:53:00
2:53 PM,30.9,16.0,54,30.33,10.0,Calm,Calm,-,N/A,,Clear,0,2013-01-15 19:53:00
3:53 PM,30.9,16.0,54,30.33,10.0,Calm,Calm,-,N/A,,Clear,0,2013-01-15 20:53:00
4:53 PM,30.9,16.0,54,30.31,10.0,SSE,3.5,-,N/A,,Clear,150,2013-01-15 21:53:00
5:53 PM,28.9,19.0,67,30.32,10.0,South,9.2,-,N/A,,Clear,180,2013-01-15 22:53:00
6:53 PM,28.0,18.0,66,30.30,10.0,Calm,Calm,-,N/A,,Clear,0,2013-01-15 23:53:00
7:53 PM,28.0,18.0,66,30.28,10.0,Calm,Calm,-,N/A,,Clear,0,2013-01-16 00:53:00
8:53 PM,27.0,19.9,75,30.25,10.0,Calm,Calm,-,N/A,,Clear,0,2013-01-16 01:53:00
9:53 PM,28.0,19.0,69,30.23,10.0,Calm,Calm,-,N/A,,Clear,0,2013-01-16 02:53:00
10:53 PM,27.0,19.9,75,30.19,10.0,Calm,Calm,-,N/A,,Clear,0,2013-01-16 03:53:00
11:53 PM,25.0,18.0,75,30.16,10.0,Calm,Calm,-,N/A,,Clear,0,2013-01-16 04:53:00